OTTER PUP 2

Satellite information

Favourite Embed

Satellite Type and Status

PAYLOADIN ORBIT

Key statistics

Satellite OTTER PUP 2 at a glance.

Uptime

174

Days in orbit

Revolutions

≈ 15.2

Per day

Orbit

SSO

Sun Synchronous Orbit

Inclination

97.5

Latest

Satellite identification and parameters

Extended collection of information and parameters for OTTER PUP 2.

Object identification

Identified? True

Debris? False

Object name: OTTER PUP 2

International designator: 2025-135K

Object number (NORAD): 64537

Object ID (CCSDS): 64537

Country: UNITED STATES OF AMERICA (US)

Current information (Y/N): Y

RCS size: MEDIUM

Orbital parameters

Period: 94.78 minutes

Inclination: 97.4573 deg

SMA: 6886.075 km

Apoapsis: 509.886 km

Periapsis: 505.995 km

RAAN: 99.5808 deg

Eccentricy: 0.00028249

Argument of periapsis: 92.7706 deg

Mean anomaly: 267.3852 deg

Mean motion: 15.19305493 rev/day

Mean motion (dot): 0.00010092 rev/day2

B* drag term: 0.00048093444 1/REarth

Two-line elements (TLE)

Creation date: Dec. 14, 2025, 3:07 a.m.

Reference frame: TEME

Reference center: EARTH

Epoch: Dec. 13, 2025, 2:21 p.m. UTC

TLE line 0: 0 OTTER PUP 2

TLE line 1: 1 64537U 25135K 25347.59835612 .00010092 00000-0 48093-3 0 9990

TLE line 2: 2 64537 97.4573 99.5808 0002825 92.7706 267.3852 15.19305493 26651

Live tracking on map

Real-time ground track for satellite OTTER PUP 2.

In-orbit conjunctions

There are no conjunctions computed for OTTER PUP 2, at the moment. Check back to stay up to date, as we update our databases every day.

Go to all conjunctions

Associated space launch

Dedicated rideshare flight to a sun-synchronous orbit with dozens of small microsatellites and nanosatellites for commercial and government customers.

OTTER PUP 2 was lifted into orbit during the mission ‘Falcon 9 Block 5 | Transporter 14 (Dedicated SSO Rideshare)’, on board a Falcon 9 space rocket.

The launch took place on June 23, 2025, 9:25 p.m. from Space Launch Complex 4E.

For more information about the launch, click the button.

Launch to space Falcon 9 Block 5 | Transporter 14 (Dedicated SSO Rideshare)
Falcon 9 Block 5 | Transporter 14 (Dedicated SSO Rideshare)

Agency: SpaceX

Status: Launch Successful

Launch date: June 23, 2025, 9:25 p.m. UTC

Rocket: Falcon 9

Launch pad: Space Launch Complex 4E

Location: Vandenberg SFB, CA, USA

...

Latest news about this satellite

News about space launch
The Exploration Company still studying Mission Possible reentry

The Exploration Company is still studying what happened in the final phases of a test flight three months ago that resulted in the loss of the spacecraft. The post The Exploration Company still studying Mission Possible reentry appeared first on SpaceNew...

News about space launch
A European spacecraft company flies its vehicle, then loses it after reentry

"This partial success reflects both ambition and the inherent risks of innovation."

News about space launch
The Exploration Company claims partial success of Mission Possible reentry spacecraft

The Exploration Company said it achieved “partial success” on a test flight of a reentry capsule but lost the spacecraft before it splashed down. The post The Exploration Company claims partial success of Mission Possible reentry spacecraft appeared firs...


Newsletter sign-up

Weekly statistics, charts and insights to help you stay on top of the space industry.